Regional Weather Roundup
Issued by NWS Upton, NY

Current Version | Previous Version | Text Only | Print | Product List | Glossary On
Versions: 1 2 3 4 5 6 7 8 9 10 11 12 13 14 15 16 17 18 19 20 21 22 23 24 25 26 27 28 29 30 31 32 33 34 35 36 37 38 39 40 41 42 43 44 45 46 47 48 49 50
000
ASUS41 KOKX 010805
RWROKX

REGIONAL WEATHER ROUNDUP
NATIONAL WEATHER SERVICE NEW YORK NY
300 AM EST SUN MAR 01 2015

NOTE: "FAIR" INDICATES FEW OR NO CLOUDS BELOW 12,000 FEET WITH NO
SIGNIFICANT WEATHER AND/OR OBSTRUCTIONS TO VISIBILITY.

NYZ071-072-176-178-NJZ106-104-010900-
NEW YORK CITY METRO AREA


CITY           SKY/WX    TMP DP  RH WIND       PRES   REMARKS
CENTRAL PARK   CLEAR     25  -1  32 CALM      30.70F
LAGUARDIA APRT PTCLDY    26   3  37 NW5       30.69F WCI  20
KENNEDY INTL   PTCLDY    23   6  48 W3        30.71F
NEWARK/LIBERTY PTCLDY    20   6  55 CALM      30.70F
BRNX BOT. GARD   N/A    N/A N/A N/A W8        30.69F
TETERBORO      CLEAR     18   8  65 CALM      30.69F
$$

NYZ177-179-078>081-010900-
LONG ISLAND NEW YORK

CITY           SKY/WX    TMP DP  RH WIND       PRES   REMARKS
FARMINGDALE    CLEAR     14   7  73 CALM      30.70F
ISLIP          CLEAR     15   6  67 CALM      30.69F
SHIRLEY        CLEAR     10   1  67 CALM      30.71F
WESTHAMPTON    CLEAR      0  -7  72 CALM      30.72S
MONTAUK POINT    N/A     15   7  70 CALM      30.72R
$$

NYZ052-065-067-010900-
HUDSON VALLEY

CITY           SKY/WX    TMP DP  RH WIND       PRES   REMARKS
WHITE PLAINS   CLEAR     12   3  67 NW3       30.65F
NEWBURGH       NOT AVBL
MONTGOMERY     PTCLDY     0  -5  79 CALM      30.65F
POUGHKEEPSIE   PTCLDY     2  -5  72 CALM      30.69F
ALBANY         PTCLDY     5  -3  69 CALM      30.68F
$$

NJZ001-105-106-008-010-013-015-019>022-104-010900-
NEW JERSEY

CITY           SKY/WX    TMP DP  RH WIND       PRES   REMARKS
NEWARK/LIBERTY PTCLDY    20   6  55 CALM      30.70F
TETERBORO      CLEAR     18   8  65 CALM      30.69F
CALDWELL       CLEAR     12   2  64 CALM      30.70F
MORRISTOWN     PTCLDY     9   3  78 CALM      30.69F
SOMERVILLE     PTCLDY     7   0  73 CALM      30.68F
SUSSEX         PTCLDY     4  -1  80 CALM      30.66F
ANDOVER          N/A      3  -1  83 CALM      30.65F
TRENTON        PTCLDY    14   1  56 CALM      30.70F
MILLVILLE      CLEAR    N/A N/A N/A CALM      30.70F
ATLANTIC CITY  CLEAR     15   7  70 CALM      30.71F
WRIGHTSTOWN    CLEAR     12   7  80 CALM      30.68F
TOMS RIVER     CLEAR      9   1  72 CALM      30.71F
BELMAR         CLEAR     18   5  57 CALM      30.69F
$$

PAZ047>061-062-071-010900-
EASTERN PENNSYLVANIA

CITY           SKY/WX    TMP DP  RH WIND       PRES   REMARKS
PHILADELPHIA   CLOUDY    22   8  55 CALM      30.72F
ALLENTOWN      PTCLDY    12   2  64 CALM      30.67F
SCRANTON       MOCLDY    11  -2  56 E5        30.59F WCI   3
$$

CTZ002-004>006-009-010-012-RIZ004-006-007-MAZ004-011-015-010900-
SOUTHERN NEW ENGLAND
 IN CT

CITY           SKY/WX    TMP DP  RH WIND       PRES   REMARKS
BRADLEY INTL   PTCLDY     5  -3  69 W5        30.69S WCI  -4
HARTFORD       CLEAR      5   1  83 CALM      30.72S
DANBURY        CLEAR      1  -6  72 CALM      30.68F
WTRBRY/OXFORD  CLEAR      9  -9  43 CALM      30.64F
BRIDGEPORT     CLEAR     13   4  67 CALM      30.71F
MERIDEN        CLEAR      2  -4  76 CALM      30.71S
NEW HAVEN      CLEAR      6   1  80 CALM      30.70F
CHESTER        FAIR      18   0  45 CALM      30.68S
GROTON         CLEAR      6   4  91 N3        30.70S
WILLIMANTIC    CLEAR      0  -5  79 CALM      30.71S

 IN RI

CITY           SKY/WX    TMP DP  RH WIND       PRES   REMARKS
PROVIDENCE     CLEAR     10   0  63 SW3       30.70S
BLOCK ISLAND   CLEAR     21   7  53 N5        30.68S WCI  15
WESTERLY       CLEAR      5   0  79 CALM      30.71S

 IN MA

CITY           SKY/WX    TMP DP  RH WIND       PRES   REMARKS
BOSTON         PTCLDY    19   3  49 W5        30.68F WCI  12
WORCESTER      CLEAR     15  -3  44 W12       30.60F WCI   2
WESTFIELD      CLEAR      0  -6  76 CALM      30.69S
PROVINCETOWN   CLEAR     12   7  79 CALM      30.68F
NANTUCKET      CLEAR     17  10  74 NW5       30.68F WCI  10
$$

ANZ330-335-338-340-345-350-353-355-010900-
COASTAL MARINE OBSERVATIONS


STATION/POSITION TIME  SKY/WX   TEMP    WIND        PRES    VSBY  WAVE
                                AIR SEA DIR/SP/G                  HT/PER
                 (UTC)          (F)     (DEG/KT/KT) (MB)    (MI)  (FT/S)
NY HARB ENTRANCE 0800            28 37  270/  4/  6 1039.6          2/ 9
4S FIRE IS       NOT AVBL
20S FIRE ISLAND  0700               37              1040.7          2/ 9
23SW MTP         0800                                 N/A           2/ 9
HUDSON CANYON    NOT AVBL
EXECUTION ROCKS  NOT AVBL
WESTERN LI SOUND NOT AVBL
CENTRAL LI SOUND NOT AVBL
EASTERN LI SOUND NOT AVBL
ROBBINS REEF     0800            24     280/  3/  4 1038.6
$$


>>>>>>>>>>>>>>>>>>>>>>>>>>>> KEY <<<<<<<<<<<<<<<<<<<<<<<<<<<
>                                                          <
>     SKY/WX - SKY CONDITION/PRESENT WEATHER               <
>     TMP    - TEMPERATURE IN FAHRENHEIT                   <
>     DP     - DEWPOINT IN FAHRENHEIT                      <
>     RH     - RELATIVE HUMIDITY IN PERCENT                <
>     WIND   - DIRECTION AND SPEED IN MPH                  <
>     PRES   - MEAN SEA LEVEL PRESSURE IN INCHES OF HG     <
>     WCI    - WIND CHILL INDEX                            <
>     VSB    - VISIBILITY IN MILES                         <
>     HX     - HEAT INDEX                                  <
>     TC     - TEMPERATURE IN CELSIUS                      <
>     VRB    - VARIABLE WIND DIRECTION                     <
>                                                          <
>>>>>>>>>>>>>>>>>>>>>>>>>>>> KEY <<<<<<<<<<<<<<<<<<<<<<<<<<<




USA.gov is the U.S. government's official web portal to all federal, state and local government web resources and services.